WZZ7041 LZIB-LATI

Flight info

Callsign WZZ7041
Flight time 1h 11m
Altitude 35000
Route VAMOG DCT ZOLKU DCT GITAS DCT OKORA DCT BABIT T23 RISTU DCT KOSIV N732 MODRA N142 AKIKA DCT INLOT
Aircraft A320/M-YS/C

Departure

Time 2026-05-05 17:24
Airport M. R. Štefánik Airport (LZIB)

Arrival

Time 2026-05-05 18:35
Airport Tirana International Airport Mother Teresa (LATI)
Time Latitude Longitude Altitude Speed Heading
2026-05-05 17:04 48.16858 17.20022 447 ft 0 kts 304°
2026-05-05 17:17 48.16856 17.20028 447 ft 3 kts 283°
2026-05-05 17:17 48.16845 17.20048 447 ft 3 kts 350°
2026-05-05 17:17 48.16828 17.20049 447 ft 2 kts 35°
2026-05-05 17:18 48.16827 17.20048 447 ft 0 kts 35°
2026-05-05 17:20 48.16830 17.20051 447 ft 5 kts 39°
2026-05-05 17:20 48.16893 17.20145 447 ft 14 kts 47°
2026-05-05 17:21 48.16952 17.20249 447 ft 13 kts 50°
2026-05-05 17:21 48.16990 17.20314 447 ft 12 kts 49°
2026-05-05 17:21 48.17054 17.20410 447 ft 15 kts 43°
2026-05-05 17:22 48.17206 17.20572 447 ft 11 kts 349°
2026-05-05 17:22 48.17262 17.20514 447 ft 9 kts 315°
2026-05-05 17:22 48.17304 17.20445 447 ft 9 kts 313°
2026-05-05 17:22 48.17367 17.20351 447 ft 17 kts 319°
2026-05-05 17:23 48.17470 17.20309 447 ft 15 kts 13°
2026-05-05 17:23 48.17533 17.20415 447 ft 14 kts 90°
2026-05-05 17:23 48.17505 17.20502 447 ft 0 kts 129°
2026-05-05 17:24 48.17425 17.20631 448 ft 47 kts 134°
2026-05-05 17:24 48.17051 17.21209 444 ft 106 kts 134°
2026-05-05 17:24 48.16402 17.22154 509 ft 144 kts 143°
2026-05-05 17:24 48.15710 17.23138 1197 ft 136 kts 144°
2026-05-05 17:25 48.15018 17.24199 1668 ft 152 kts 143°
2026-05-05 17:25 48.14489 17.25030 1856 ft 173 kts 142°
2026-05-05 17:25 48.13259 17.26959 2185 ft 215 kts 140°
2026-05-05 17:25 48.12172 17.28666 2702 ft 235 kts 140°
2026-05-05 17:26 48.11007 17.30500 3373 ft 245 kts 142°
2026-05-05 17:26 48.09840 17.32331 4209 ft 247 kts 141°
2026-05-05 17:26 48.08644 17.34199 5061 ft 251 kts 141°
2026-05-05 17:26 48.07421 17.36099 5892 ft 256 kts 141°
2026-05-05 17:27 48.06175 17.38030 6733 ft 260 kts 140°
2026-05-05 17:27 48.04904 17.39995 7534 ft 266 kts 140°
2026-05-05 17:27 48.03604 17.42003 8386 ft 271 kts 139°
2026-05-05 17:27 48.02279 17.44051 9246 ft 277 kts 139°
2026-05-05 17:28 48.00923 17.46141 10014 ft 284 kts 138°
2026-05-05 17:28 47.99496 17.48335 10405 ft 306 kts 139°
2026-05-05 17:28 47.97963 17.50686 10753 ft 326 kts 138°
2026-05-05 17:28 47.96349 17.53166 11332 ft 338 kts 137°
2026-05-05 17:29 47.94702 17.55704 12141 ft 342 kts 139°
2026-05-05 17:29 47.93031 17.58276 12926 ft 348 kts 139°
2026-05-05 17:29 47.91294 17.60818 13632 ft 353 kts 142°
2026-05-05 17:29 47.89234 17.62777 14332 ft 350 kts 160°
2026-05-05 17:30 47.86922 17.63845 15080 ft 349 kts 170°
2026-05-05 17:30 47.84528 17.64595 15674 ft 357 kts 171°
2026-05-05 17:30 47.82069 17.65307 16278 ft 364 kts 171°
2026-05-05 17:30 47.79591 17.66067 17177 ft 362 kts 169°
2026-05-05 17:31 47.77151 17.67172 17814 ft 370 kts 163°
2026-05-05 17:31 47.74734 17.68552 18494 ft 374 kts 161°
2026-05-05 17:31 47.72324 17.70079 19070 ft 379 kts 160°
2026-05-05 17:31 47.69897 17.71678 19639 ft 383 kts 159°
2026-05-05 17:32 47.67455 17.73297 20259 ft 386 kts 159°
2026-05-05 17:32 47.64991 17.74915 20827 ft 389 kts 160°
2026-05-05 17:32 47.62499 17.76527 21374 ft 394 kts 160°
2026-05-05 17:32 47.59972 17.78143 21929 ft 397 kts 160°
2026-05-05 17:33 47.57414 17.79764 22479 ft 401 kts 160°
2026-05-05 17:33 47.54844 17.81439 23031 ft 406 kts 159°
2026-05-05 17:33 47.52279 17.83240 23452 ft 413 kts 157°
2026-05-05 17:33 47.49686 17.85138 23836 ft 418 kts 156°
2026-05-05 17:34 47.47078 17.87081 24272 ft 421 kts 156°
2026-05-05 17:34 47.44499 17.89006 24735 ft 423 kts 156°
2026-05-05 17:34 47.41853 17.90971 25168 ft 426 kts 156°
2026-05-05 17:34 47.39195 17.92932 25620 ft 428 kts 156°
2026-05-05 17:35 47.36517 17.94897 26045 ft 431 kts 156°
2026-05-05 17:35 47.33820 17.96868 26450 ft 434 kts 157°
2026-05-05 17:35 47.31110 17.98843 26845 ft 437 kts 157°
2026-05-05 17:35 47.28373 18.00834 27249 ft 439 kts 156°
2026-05-05 17:36 47.25629 18.02831 27645 ft 442 kts 156°
2026-05-05 17:36 47.22867 18.04836 28026 ft 444 kts 156°
2026-05-05 17:36 47.20079 18.06856 28330 ft 449 kts 156°
2026-05-05 17:36 47.17276 18.08885 28750 ft 450 kts 156°
2026-05-05 17:37 47.14463 18.10919 29119 ft 452 kts 156°
2026-05-05 17:37 47.11635 18.12962 29456 ft 455 kts 156°
2026-05-05 17:37 47.08781 18.15022 29803 ft 457 kts 156°
2026-05-05 17:37 47.05931 18.17076 30231 ft 456 kts 156°
2026-05-05 17:38 47.03078 18.19089 30672 ft 454 kts 157°
2026-05-05 17:38 47.00222 18.21064 31074 ft 453 kts 157°
2026-05-05 17:38 46.97368 18.23016 31478 ft 452 kts 157°
2026-05-05 17:38 46.94528 18.24951 31918 ft 449 kts 158°
2026-05-05 17:39 46.91699 18.26878 32334 ft 448 kts 158°
2026-05-05 17:39 46.88870 18.28804 32594 ft 449 kts 158°
2026-05-05 17:39 46.86033 18.30735 32834 ft 451 kts 158°
2026-05-05 17:39 46.83186 18.32674 33178 ft 450 kts 158°
2026-05-05 17:40 46.80350 18.34606 33569 ft 449 kts 158°
2026-05-05 17:40 46.77524 18.36530 33917 ft 448 kts 158°
2026-05-05 17:40 46.74703 18.38448 34214 ft 447 kts 157°
2026-05-05 17:40 46.71885 18.40361 34487 ft 446 kts 157°
2026-05-05 17:41 46.69073 18.42267 34779 ft 445 kts 157°
2026-05-05 17:41 46.66269 18.44164 34908 ft 447 kts 157°
2026-05-05 17:41 46.63438 18.46077 34918 ft 447 kts 158°
2026-05-05 17:42 46.57805 18.49878 34920 ft 446 kts 158°
2026-05-05 17:42 46.52157 18.53681 34925 ft 448 kts 158°
2026-05-05 17:43 46.46495 18.57485 34923 ft 448 kts 158°
2026-05-05 17:43 46.40835 18.61279 34930 ft 447 kts 158°
2026-05-05 17:44 46.35189 18.65054 34924 ft 447 kts 158°
2026-05-05 17:44 46.29533 18.68826 34928 ft 447 kts 158°
2026-05-05 17:45 46.23878 18.72590 34927 ft 448 kts 158°
2026-05-05 17:45 46.18229 18.76343 34931 ft 446 kts 158°
2026-05-05 17:46 46.12596 18.80076 34929 ft 445 kts 158°
2026-05-05 17:46 46.09450 18.82157 34927 ft 445 kts 158°
2026-05-05 17:47 46.03815 18.85877 34932 ft 445 kts 158°
2026-05-05 17:47 45.98184 18.89587 34930 ft 445 kts 158°
2026-05-05 17:48 45.92638 18.93509 34930 ft 447 kts 152°
2026-05-05 17:48 45.87313 18.98176 34930 ft 449 kts 150°
2026-05-05 17:49 45.82035 19.02992 34933 ft 450 kts 150°
2026-05-05 17:49 45.76766 19.07819 34925 ft 450 kts 150°
2026-05-05 17:50 45.71483 19.12630 34934 ft 450 kts 150°
2026-05-05 17:50 45.66189 19.17424 34933 ft 452 kts 150°
2026-05-05 17:51 45.60861 19.22235 34929 ft 453 kts 150°
2026-05-05 17:51 45.55565 19.27007 34932 ft 453 kts 150°
2026-05-05 17:52 45.50229 19.31807 34932 ft 453 kts 150°
2026-05-05 17:52 45.44893 19.36594 34924 ft 453 kts 150°
2026-05-05 17:53 45.39561 19.41367 34933 ft 453 kts 150°
2026-05-05 17:53 45.34221 19.46135 34925 ft 453 kts 150°
2026-05-05 17:54 45.28869 19.50874 34929 ft 452 kts 153°
2026-05-05 17:54 45.23092 19.54139 34939 ft 445 kts 170°
2026-05-05 17:55 45.17012 19.55813 34933 ft 445 kts 174°
2026-05-05 17:55 45.10887 19.57159 34932 ft 445 kts 174°
2026-05-05 17:56 45.04754 19.58471 34933 ft 446 kts 174°
2026-05-05 17:56 44.98622 19.59816 34935 ft 446 kts 174°
2026-05-05 17:57 44.92490 19.61182 34937 ft 446 kts 174°
2026-05-05 17:57 44.86359 19.62551 34939 ft 446 kts 174°
2026-05-05 17:58 44.80222 19.63917 34943 ft 447 kts 174°
2026-05-05 17:58 44.74076 19.65281 34940 ft 447 kts 174°
2026-05-05 17:59 44.67970 19.66632 34944 ft 447 kts 174°
2026-05-05 17:59 44.61810 19.67993 34946 ft 448 kts 175°
2026-05-05 18:00 44.55643 19.69352 34947 ft 449 kts 175°
2026-05-05 18:00 44.49479 19.70708 34950 ft 448 kts 175°
2026-05-05 18:01 44.43313 19.72062 34948 ft 448 kts 175°
2026-05-05 18:01 44.37156 19.73410 34954 ft 448 kts 175°
2026-05-05 18:02 44.31013 19.74753 34826 ft 445 kts 175°
2026-05-05 18:02 44.27942 19.75423 34585 ft 446 kts 175°
2026-05-05 18:02 44.24876 19.76090 34343 ft 447 kts 175°
2026-05-05 18:02 44.21806 19.76758 34100 ft 446 kts 175°
2026-05-05 18:03 44.18734 19.77427 33982 ft 447 kts 175°
2026-05-05 18:03 44.12595 19.78762 33974 ft 446 kts 175°
2026-05-05 18:04 44.06457 19.80091 33974 ft 446 kts 175°
2026-05-05 18:04 44.00323 19.80269 33979 ft 439 kts 190°
2026-05-05 18:05 43.94252 19.79159 33986 ft 441 kts 193°
2026-05-05 18:05 43.88193 19.77801 33986 ft 441 kts 193°
2026-05-05 18:06 43.82140 19.76428 33986 ft 441 kts 194°
2026-05-05 18:06 43.76061 19.75081 34006 ft 443 kts 194°
2026-05-05 18:07 43.70999 19.73977 34011 ft 443 kts 193°
2026-05-05 18:07 43.64899 19.72652 34009 ft 443 kts 194°
2026-05-05 18:08 43.58796 19.71332 34020 ft 445 kts 194°
2026-05-05 18:08 43.52677 19.70009 34015 ft 445 kts 194°
2026-05-05 18:09 43.46555 19.68685 34003 ft 445 kts 194°
2026-05-05 18:09 43.40423 19.67361 34030 ft 448 kts 194°
2026-05-05 18:10 43.34251 19.66036 34032 ft 449 kts 194°
2026-05-05 18:10 43.28078 19.64714 34030 ft 449 kts 194°
2026-05-05 18:11 43.21897 19.63389 34038 ft 450 kts 194°
2026-05-05 18:11 43.15700 19.62062 34041 ft 451 kts 194°
2026-05-05 18:12 43.09501 19.60738 34054 ft 451 kts 194°
2026-05-05 18:12 43.03297 19.59416 34043 ft 451 kts 194°
2026-05-05 18:13 42.96972 19.58985 34067 ft 458 kts 185°
2026-05-05 18:13 42.90640 19.59118 33827 ft 458 kts 184°
2026-05-05 18:13 42.87443 19.59236 33549 ft 460 kts 184°
2026-05-05 18:14 42.84239 19.59358 33278 ft 461 kts 184°
2026-05-05 18:14 42.81035 19.59478 33013 ft 460 kts 183°
2026-05-05 18:14 42.77836 19.59593 32750 ft 460 kts 183°
2026-05-05 18:14 42.74640 19.59704 32491 ft 460 kts 183°
2026-05-05 18:15 42.71438 19.59810 32233 ft 459 kts 183°
2026-05-05 18:15 42.68245 19.59912 31967 ft 460 kts 183°
2026-05-05 18:15 42.65042 19.60014 31712 ft 460 kts 182°
2026-05-05 18:15 42.61844 19.60115 31458 ft 460 kts 182°
2026-05-05 18:16 42.58645 19.60217 31226 ft 459 kts 182°
2026-05-05 18:16 42.55460 19.60314 30971 ft 457 kts 183°
2026-05-05 18:16 42.52324 19.59927 30723 ft 449 kts 193°
2026-05-05 18:16 42.49254 19.59190 30470 ft 447 kts 194°
2026-05-05 18:17 42.46199 19.58387 30232 ft 446 kts 195°
2026-05-05 18:17 42.43160 19.57569 29960 ft 445 kts 195°
2026-05-05 18:17 42.40131 19.56747 29669 ft 443 kts 195°
2026-05-05 18:17 42.37123 19.55929 29338 ft 438 kts 195°
2026-05-05 18:18 42.34156 19.55122 28797 ft 434 kts 195°
2026-05-05 18:18 42.31203 19.54318 28220 ft 432 kts 195°
2026-05-05 18:18 42.28259 19.53516 27650 ft 430 kts 195°
2026-05-05 18:18 42.25329 19.52718 27066 ft 429 kts 195°
2026-05-05 18:19 42.22407 19.51924 26483 ft 428 kts 195°
2026-05-05 18:19 42.19489 19.51131 25902 ft 427 kts 194°
2026-05-05 18:19 42.16577 19.50340 25320 ft 427 kts 194°
2026-05-05 18:19 42.13670 19.49551 24719 ft 427 kts 194°
2026-05-05 18:20 42.10760 19.48763 24128 ft 426 kts 194°
2026-05-05 18:20 42.07852 19.47975 23509 ft 426 kts 194°
2026-05-05 18:20 42.04945 19.47190 22837 ft 425 kts 194°
2026-05-05 18:20 42.02061 19.46411 22241 ft 422 kts 194°
2026-05-05 18:21 41.99177 19.45707 21695 ft 419 kts 189°
2026-05-05 18:21 41.96277 19.45714 21100 ft 420 kts 176°
2026-05-05 18:21 41.93403 19.46310 20551 ft 417 kts 172°
2026-05-05 18:21 41.90547 19.47007 20010 ft 414 kts 172°
2026-05-05 18:22 41.87731 19.47705 19490 ft 410 kts 172°
2026-05-05 18:22 41.84936 19.48387 18929 ft 408 kts 172°
2026-05-05 18:22 41.82167 19.49056 18256 ft 401 kts 172°
2026-05-05 18:22 41.79434 19.49711 17420 ft 395 kts 172°
2026-05-05 18:23 41.76762 19.50349 16736 ft 385 kts 172°
2026-05-05 18:23 41.74163 19.50968 16179 ft 373 kts 172°
2026-05-05 18:23 41.71642 19.51567 15648 ft 363 kts 172°
2026-05-05 18:23 41.69192 19.52148 15110 ft 353 kts 172°
2026-05-05 18:24 41.66819 19.52708 14599 ft 351 kts 172°
2026-05-05 18:24 41.64385 19.53274 14065 ft 350 kts 173°
2026-05-05 18:24 41.61970 19.53689 13398 ft 351 kts 175°
2026-05-05 18:24 41.59544 19.54027 12845 ft 349 kts 176°
2026-05-05 18:25 41.57171 19.54346 12348 ft 345 kts 176°
2026-05-05 18:25 41.55563 19.54563 12000 ft 343 kts 176°
2026-05-05 18:25 41.52401 19.54989 11312 ft 340 kts 176°
2026-05-05 18:25 41.50051 19.55307 10810 ft 338 kts 176°
2026-05-05 18:26 41.47749 19.55619 10310 ft 336 kts 176°
2026-05-05 18:26 41.45432 19.55934 10117 ft 323 kts 176°
2026-05-05 18:26 41.43276 19.56229 10053 ft 308 kts 176°
2026-05-05 18:26 41.41191 19.56513 9913 ft 295 kts 176°
2026-05-05 18:27 41.39177 19.56787 9608 ft 289 kts 176°
2026-05-05 18:27 41.37182 19.57055 9101 ft 288 kts 176°
2026-05-05 18:27 41.35193 19.57324 8597 ft 285 kts 176°
2026-05-05 18:27 41.33250 19.57587 8201 ft 278 kts 175°
2026-05-05 18:28 41.29481 19.58096 7496 ft 267 kts 175°
2026-05-05 18:28 41.27635 19.58345 7144 ft 267 kts 175°
2026-05-05 18:28 41.25788 19.58594 6800 ft 267 kts 175°
2026-05-05 18:29 41.23935 19.58844 6447 ft 268 kts 175°
2026-05-05 18:29 41.22080 19.59094 6082 ft 267 kts 175°
2026-05-05 18:29 41.20263 19.59571 5728 ft 267 kts 160°
2026-05-05 18:29 41.18704 19.60889 5371 ft 269 kts 134°
2026-05-05 18:30 41.17764 19.63024 5013 ft 271 kts 107°
2026-05-05 18:30 41.17604 19.65505 4647 ft 272 kts 88°
2026-05-05 18:30 41.17771 19.68002 4285 ft 271 kts 84°
2026-05-05 18:30 41.18034 19.70470 4035 ft 270 kts 77°
2026-05-05 18:31 41.18786 19.72763 3432 ft 278 kts 51°
2026-05-05 18:31 41.20327 19.74291 2900 ft 280 kts 19°
2026-05-05 18:31 41.22205 19.74632 2719 ft 267 kts 357°
2026-05-05 18:31 41.24002 19.74451 2693 ft 251 kts 353°
2026-05-05 18:32 41.25686 19.74210 2688 ft 235 kts 352°
2026-05-05 18:32 41.27281 19.73977 2556 ft 225 kts 352°
2026-05-05 18:32 41.28776 19.73765 2465 ft 209 kts 352°
2026-05-05 18:32 41.30201 19.73567 2167 ft 203 kts 352°
2026-05-05 18:33 41.31562 19.73382 1999 ft 187 kts 353°
2026-05-05 18:33 41.32780 19.73220 1873 ft 167 kts 352°
2026-05-05 18:33 41.33900 19.73071 1676 ft 158 kts 352°
2026-05-05 18:33 41.34951 19.72931 1448 ft 147 kts 352°
2026-05-05 18:34 41.35955 19.72795 1164 ft 143 kts 353°
2026-05-05 18:34 41.36935 19.72663 910 ft 140 kts 353°
2026-05-05 18:34 41.37907 19.72533 723 ft 141 kts 354°
2026-05-05 18:34 41.38878 19.72403 502 ft 140 kts 354°
2026-05-05 18:35 41.39829 19.72278 278 ft 136 kts 354°
2026-05-05 18:35 41.40759 19.72155 132 ft 131 kts 354°
2026-05-05 18:35 41.41454 19.72062 121 ft 71 kts 355°
2026-05-05 18:35 41.41809 19.72015 121 ft 18 kts 354°
2026-05-05 18:36 41.41880 19.71926 122 ft 14 kts 276°
2026-05-05 18:36 41.41871 19.71809 122 ft 11 kts 264°
2026-05-05 18:36 41.41865 19.71711 123 ft 10 kts 264°
2026-05-05 18:36 41.41867 19.71619 123 ft 10 kts 299°
2026-05-05 18:37 41.41910 19.71565 121 ft 8 kts 283°
2026-05-05 18:37 41.41910 19.71518 122 ft 0 kts 263°